TimeEST,TemperatureF,Dew PointF,Humidity,Sea Level PressureIn,VisibilityMPH,Wind Direction,Wind SpeedMPH,Gust SpeedMPH,PrecipitationIn,Events,Conditions,WindDirDegrees,DateUTC
12:52 AM,39.0,23.0,53,30.22,10.0,Calm,Calm,-,N/A,,Overcast,0,2012-11-30 05:52:00
1:52 AM,37.0,25.0,62,30.26,10.0,NE,5.8,-,N/A,,Overcast,40,2012-11-30 06:52:00
2:52 AM,36.0,25.0,64,30.29,10.0,North,4.6,-,N/A,,Overcast,10,2012-11-30 07:52:00
3:52 AM,33.1,25.0,72,30.32,10.0,NNE,5.8,-,N/A,,Overcast,20,2012-11-30 08:52:00
4:52 AM,33.1,24.1,70,30.35,10.0,Calm,Calm,-,N/A,,Overcast,0,2012-11-30 09:52:00
4:59 AM,33.8,23.0,65,30.33,10.0,Variable,3.5,-,N/A,,Overcast,0,2012-11-30 09:59:00
5:29 AM,33.8,23.0,65,30.35,10.0,NNE,3.5,-,N/A,,Overcast,30,2012-11-30 10:29:00
5:52 AM,33.1,21.9,64,30.38,10.0,NNE,8.1,-,N/A,,Overcast,20,2012-11-30 10:52:00
6:11 AM,32.0,21.2,64,30.37,10.0,NE,6.9,-,N/A,,Overcast,40,2012-11-30 11:11:00
6:39 AM,30.2,17.6,60,30.40,10.0,NE,9.2,-,N/A,,Overcast,40,2012-11-30 11:39:00
6:52 AM,30.0,17.1,59,30.42,10.0,North,6.9,-,N/A,,Overcast,10,2012-11-30 11:52:00
7:52 AM,28.9,10.0,45,30.45,10.0,NNE,10.4,-,N/A,,Overcast,20,2012-11-30 12:52:00
8:45 AM,28.4,6.8,40,30.46,10.0,North,10.4,-,N/A,,Overcast,360,2012-11-30 13:45:00
8:52 AM,28.0,5.0,38,30.48,10.0,North,10.4,-,N/A,,Mostly Cloudy,350,2012-11-30 13:52:00
9:52 AM,28.9,1.9,32,30.50,10.0,NNW,9.2,-,N/A,,Mostly Cloudy,340,2012-11-30 14:52:00
10:52 AM,30.9,1.0,28,30.49,10.0,Variable,4.6,-,N/A,,Clear,0,2012-11-30 15:52:00
11:52 AM,33.1,-2.9,21,30.48,10.0,NNE,8.1,-,N/A,,Mostly Cloudy,30,2012-11-30 16:52:00
12:52 PM,33.1,-4.0,20,30.46,10.0,North,6.9,-,N/A,,Overcast,360,2012-11-30 17:52:00
1:52 PM,33.1,-4.0,20,30.46,10.0,NE,8.1,-,N/A,,Overcast,40,2012-11-30 18:52:00
2:52 PM,33.1,-6.0,19,30.48,10.0,Variable,3.5,-,N/A,,Overcast,0,2012-11-30 19:52:00
3:52 PM,32.0,-4.0,21,30.49,10.0,NE,4.6,-,N/A,,Overcast,50,2012-11-30 20:52:00
4:52 PM,32.0,-4.0,21,30.50,10.0,NE,3.5,-,N/A,,Overcast,40,2012-11-30 21:52:00
5:52 PM,30.9,-5.1,21,30.52,10.0,NE,4.6,-,N/A,,Overcast,40,2012-11-30 22:52:00
6:52 PM,30.9,-4.0,22,30.54,10.0,NE,3.5,-,N/A,,Overcast,40,2012-11-30 23:52:00
7:52 PM,30.0,-4.0,23,30.56,10.0,Variable,3.5,-,N/A,,Overcast,0,2012-12-01 00:52:00
8:52 PM,30.0,-0.0,28,30.56,10.0,NNE,3.5,-,N/A,,Overcast,30,2012-12-01 01:52:00
9:52 PM,30.0,-0.0,28,30.56,10.0,Calm,Calm,-,N/A,,Overcast,0,2012-12-01 02:52:00
10:52 PM,28.9,-0.0,29,30.56,10.0,Calm,Calm,-,N/A,,Overcast,0,2012-12-01 03:52:00
11:52 PM,28.9,1.0,30,30.57,10.0,NE,3.5,-,N/A,,Overcast,50,2012-12-01 04:52:00